This is the latest recevied weather packets stored in our database for station/object IW1CBG-23. If no packets are shown the sender has not sent any weather packets the latest 1 day(s).
| Time | Temp. | Humidity | Pressure | Rain* | Wind** | Luminosity | Snow |
|---|---|---|---|---|---|---|---|
| 1778071258 | 15° C | 69% | 1001.6 hPa | - | - | - | - |
| 1778067546 | 15.56° C | 71% | 1001.9 hPa | - | - | - | - |
| 1778062593 | 13.89° C | 98% | 1002.4 hPa | - | - | - | - |
| 1778061355 | 13.33° C | 99% | 1002.2 hPa | - | - | - | - |
| 1778056404 | 12.22° C | 99% | 1002.2 hPa | - | - | - | - |
| 1778053931 | 11.11° C | 99% | 1002.2 hPa | - | - | - | - |
| 1778050214 | 8.89° C | 99% | 1002.6 hPa | - | - | - | - |
| 1778047737 | 7.78° C | 99% | 1002.6 hPa | - | - | - | - |
| 1778046498 | 8.89° C | 99% | 1002.5 hPa | - | - | - | - |
| 1778044022 | 7.22° C | 99% | 1002.8 hPa | - | - | - | - |
| 1778042786 | 7.22° C | 99% | 1003.3 hPa | - | - | - | - |
| 1778039074 | 7.22° C | 99% | 1003.7 hPa | - | - | - | - |
| 1778037836 | 7.22° C | 99% | 1003.9 hPa | - | - | - | - |
| 1778036600 | 7.22° C | 99% | 1003.9 hPa | - | - | - | - |
| 1778035363 | 7.22° C | 99% | 1003.8 hPa | - | - | - | - |
| 1778034126 | 7.22° C | 99% | 1004.4 hPa | - | - | - | - |
| 1778030414 | 7.22° C | 99% | 1004.9 hPa | - | - | - | - |
| 1778027939 | 7.22° C | 99% | 1005.3 hPa | - | - | - | - |
| 1778024227 | 7.22° C | 99% | 1006.1 hPa | - | - | - | - |
| 1778022990 | 7.22° C | 99% | 1006.5 hPa | - | - | - | - |
| 1778003195 | 8.33° C | 99% | 1007 hPa | - | - | - | - |
| 1777995774 | 8.89° C | 99% | 1007.2 hPa | - | - | - | - |
* Rain since midnight (hover to see other rain measurements)
** Current wind speed in m/s (hover to see current wind gust speed)